TimeCST,TemperatureF,Dew PointF,Humidity,Sea Level PressureIn,VisibilityMPH,Wind Direction,Wind SpeedMPH,Gust SpeedMPH,PrecipitationIn,Events,Conditions,WindDirDegrees,DateUTC
12:15 AM,18.0,13.8,84,29.71,10.0,SW,10.4,-,N/A,,Overcast,220,2014-01-19 06:15:00
12:35 AM,18.1,14.4,85,29.68,10.0,SW,8.1,-,N/A,,Overcast,220,2014-01-19 06:35:00
12:55 AM,18.5,14.9,86,29.68,10.0,SSW,10.4,18.4,N/A,,Scattered Clouds,210,2014-01-19 06:55:00
1:15 AM,19.4,15.8,86,29.66,10.0,SW,11.5,-,N/A,,Mostly Cloudy,220,2014-01-19 07:15:00
1:35 AM,19.8,16.3,87,29.65,10.0,SW,11.5,18.4,N/A,,Mostly Cloudy,220,2014-01-19 07:35:00
1:55 AM,19.4,16.0,87,29.63,10.0,SW,10.4,16.1,N/A,,Scattered Clouds,220,2014-01-19 07:55:00
2:15 AM,20.3,17.2,88,29.62,10.0,SW,11.5,-,N/A,,Mostly Cloudy,220,2014-01-19 08:15:00
2:35 AM,20.7,17.4,87,29.61,10.0,SW,12.7,19.6,N/A,,Scattered Clouds,220,2014-01-19 08:35:00
2:55 AM,20.7,17.4,87,29.60,10.0,SSW,10.4,-,N/A,,Scattered Clouds,210,2014-01-19 08:55:00
3:15 AM,21.2,18.0,87,29.60,10.0,SW,10.4,-,N/A,,Mostly Cloudy,220,2014-01-19 09:15:00
3:35 AM,21.2,18.1,88,29.59,10.0,SW,10.4,-,N/A,,Mostly Cloudy,220,2014-01-19 09:35:00
3:55 AM,21.2,18.3,89,29.58,10.0,SW,8.1,-,N/A,,Scattered Clouds,220,2014-01-19 09:55:00
4:15 AM,21.4,18.5,89,29.57,10.0,SW,9.2,-,N/A,,Clear,220,2014-01-19 10:15:00
4:35 AM,21.7,18.7,88,29.56,10.0,SW,10.4,-,N/A,,Clear,220,2014-01-19 10:35:00
4:55 AM,22.1,19.2,89,29.55,10.0,SW,8.1,-,N/A,,Clear,220,2014-01-19 10:55:00
5:15 AM,21.2,18.7,90,29.54,10.0,SW,6.9,-,N/A,,Clear,220,2014-01-19 11:15:00
5:35 AM,20.8,18.1,89,29.54,10.0,SW,5.8,-,N/A,,Clear,230,2014-01-19 11:35:00
5:55 AM,19.4,18.1,95,29.54,10.0,SW,5.8,-,N/A,,Clear,230,2014-01-19 11:55:00
6:15 AM,20.8,18.3,90,29.54,10.0,WSW,8.1,-,N/A,,Clear,240,2014-01-19 12:15:00
6:35 AM,20.3,17.8,90,29.54,10.0,SW,8.1,-,N/A,,Clear,230,2014-01-19 12:35:00
6:55 AM,21.2,18.5,89,29.54,10.0,WSW,8.1,-,N/A,,Clear,240,2014-01-19 12:55:00
7:15 AM,20.3,17.6,89,29.54,10.0,WSW,5.8,-,N/A,,Clear,250,2014-01-19 13:15:00
7:35 AM,20.3,18.9,94,29.54,10.0,West,3.5,-,N/A,,Clear,260,2014-01-19 13:35:00
7:55 AM,19.2,18.1,96,29.54,10.0,WSW,4.6,-,N/A,,Clear,250,2014-01-19 13:55:00
8:15 AM,19.6,18.9,97,29.53,10.0,West,4.6,-,N/A,,Clear,260,2014-01-19 14:15:00
8:35 AM,17.1,16.5,98,29.52,10.0,WSW,3.5,-,N/A,,Clear,250,2014-01-19 14:35:00
8:55 AM,20.8,19.0,93,29.52,10.0,WSW,6.9,-,N/A,,Clear,240,2014-01-19 14:55:00
9:15 AM,24.3,20.8,87,29.54,10.0,West,5.8,-,N/A,,Clear,270,2014-01-19 15:15:00
9:35 AM,27.7,23.4,84,29.55,7.0,West,6.9,-,N/A,,Clear,270,2014-01-19 15:35:00
9:55 AM,29.1,23.5,80,29.55,10.0,West,8.1,-,N/A,,Clear,270,2014-01-19 15:55:00
10:15 AM,30.2,23.9,77,29.55,10.0,West,5.8,-,N/A,,Clear,280,2014-01-19 16:15:00
10:35 AM,32.0,24.8,75,29.55,10.0,West,8.1,-,0.01,,Clear,260,2014-01-19 16:35:00
10:55 AM,32.9,25.5,74,29.54,10.0,West,9.2,-,0.01,,Clear,260,2014-01-19 16:55:00
11:15 AM,33.3,25.7,74,29.54,10.0,West,9.2,-,N/A,,Clear,270,2014-01-19 17:15:00
11:35 AM,33.8,26.1,73,29.52,10.0,West,8.1,-,N/A,,Clear,260,2014-01-19 17:35:00
11:55 AM,34.5,26.2,72,29.51,10.0,West,9.2,-,N/A,,Clear,280,2014-01-19 17:55:00
12:15 PM,34.7,26.2,71,29.48,10.0,WSW,4.6,-,N/A,,Clear,250,2014-01-19 18:15:00
12:35 PM,33.8,25.7,72,29.46,10.0,Calm,Calm,-,N/A,,Clear,0,2014-01-19 18:35:00
12:55 PM,34.7,25.7,70,29.45,10.0,Calm,Calm,-,N/A,,Clear,0,2014-01-19 18:55:00
1:15 PM,35.6,26.6,70,29.46,10.0,WSW,4.6,-,N/A,,Clear,240,2014-01-19 19:15:00
1:35 PM,36.5,27.1,69,29.48,10.0,West,10.4,-,N/A,,Clear,260,2014-01-19 19:35:00
1:55 PM,36.9,27.1,68,29.46,10.0,West,6.9,-,N/A,,Clear,260,2014-01-19 19:55:00
2:15 PM,36.5,27.1,69,29.45,10.0,WSW,4.6,-,N/A,,Clear,250,2014-01-19 20:15:00
2:35 PM,36.9,27.0,67,29.45,10.0,West,8.1,-,N/A,,Clear,280,2014-01-19 20:35:00
2:55 PM,37.0,27.1,67,29.45,10.0,West,5.8,-,N/A,,Clear,260,2014-01-19 20:55:00
3:15 PM,36.1,27.0,69,29.47,10.0,West,10.4,-,N/A,,Scattered Clouds,280,2014-01-19 21:15:00
3:35 PM,36.5,27.5,70,29.48,10.0,West,10.4,-,N/A,,Mostly Cloudy,280,2014-01-19 21:35:00
3:55 PM,36.0,27.9,72,29.49,10.0,West,6.9,-,N/A,,Overcast,270,2014-01-19 21:55:00
4:15 PM,35.6,28.0,74,29.50,10.0,WNW,4.6,-,N/A,,Overcast,290,2014-01-19 22:15:00
4:35 PM,35.6,27.5,72,29.50,10.0,NNW,8.1,-,N/A,,Overcast,340,2014-01-19 22:35:00
4:55 PM,34.9,27.3,74,29.52,10.0,NNW,8.1,-,N/A,,Overcast,340,2014-01-19 22:55:00
5:15 PM,34.2,27.1,75,29.53,10.0,NNW,6.9,-,N/A,,Overcast,340,2014-01-19 23:15:00
5:35 PM,33.8,27.1,77,29.54,10.0,NNW,8.1,-,N/A,,Overcast,340,2014-01-19 23:35:00
5:55 PM,32.0,26.4,80,29.56,10.0,North,8.1,-,N/A,,Overcast,350,2014-01-19 23:55:00
6:15 PM,32.0,26.6,80,29.57,10.0,NNW,8.1,-,N/A,,Overcast,340,2014-01-20 00:15:00
6:55 PM,31.6,26.8,82,29.59,10.0,NNW,8.1,-,N/A,,Overcast,330,2014-01-20 00:55:00
7:15 PM,31.1,26.8,84,29.60,10.0,NNW,11.5,17.3,N/A,,Overcast,330,2014-01-20 01:15:00
7:35 PM,31.1,27.0,85,29.61,10.0,NNW,10.4,17.3,N/A,,Overcast,330,2014-01-20 01:35:00
7:55 PM,31.1,27.3,86,29.63,10.0,NNW,8.1,-,N/A,,Overcast,330,2014-01-20 01:55:00
8:15 PM,30.7,27.0,86,29.64,10.0,NW,8.1,-,N/A,,Overcast,320,2014-01-20 02:15:00
8:35 PM,30.6,26.6,85,29.64,10.0,NNW,9.2,-,N/A,,Overcast,330,2014-01-20 02:35:00
8:55 PM,30.6,26.4,85,29.64,10.0,NW,6.9,-,N/A,,Overcast,310,2014-01-20 02:55:00
9:15 PM,30.0,25.7,84,29.65,10.0,WNW,5.8,-,N/A,,Overcast,300,2014-01-20 03:15:00
9:35 PM,28.9,25.0,85,29.66,10.0,NW,6.9,-,N/A,,Overcast,310,2014-01-20 03:35:00
9:55 PM,28.8,25.0,86,29.67,10.0,NW,5.8,-,N/A,,Overcast,310,2014-01-20 03:55:00
10:15 PM,28.6,25.3,88,29.68,10.0,WNW,3.5,-,N/A,,Overcast,290,2014-01-20 04:15:00
10:35 PM,29.3,24.1,81,29.69,10.0,WNW,5.8,-,N/A,,Overcast,290,2014-01-20 04:35:00
10:55 PM,29.5,23.9,80,29.69,10.0,West,4.6,-,N/A,,Overcast,280,2014-01-20 04:55:00
11:15 PM,29.3,23.9,80,29.69,10.0,West,4.6,-,N/A,,Overcast,270,2014-01-20 05:15:00
11:35 PM,29.3,24.3,81,29.71,10.0,WNW,4.6,-,N/A,,Overcast,290,2014-01-20 05:35:00
11:55 PM,29.7,24.4,81,29.71,10.0,West,4.6,-,N/A,,Overcast,270,2014-01-20 05:55:00